Weather Roundup
Issued by NWS

Home | Current Version | Previous Version | Graphics & Text | Print | Product List | Glossary Off
Versions: 1 2 3 4 5 6 7 8 9 10 11 12 13 14 15 16 17 18 19 20 21 22 23 24 25 26 27 28 29 30 31 32 33 34 35 36 37 38 39 40 41 42 43 44 45 46 47 48 49 50

135
NZUS93 KARX 230610
HRRWXR

CURRENT HOURLY OBSERVATIONS ACROSS
MUCH OF THE UPPER MISSISSIPPI VALLEY
NATIONAL WEATHER SERVICE LA CROSSE WI
1200 AM CST TUE JAN 23 2018


...SOUTHEAST MINNESOTA...


CITY           SKY/WX    TMP DP  RH WIND       PRES   REMARKS
ROCHESTER      LGT SNOW  24  22  91 N25G35    29.69R FOG     WCI   8
ROCHESTER/MAYO CLOUDY    25  24  93 NW12G21   29.71R WCI  15
WINONA         LGT SNOW  30  27  86 N9        29.68R WCI  22
AUSTIN           N/A     25  21  86 VRB16G24  29.70R WCI  12
ALBERT LEA     LGT SNOW  27  23  86 N17G23    29.73R WCI  14
DODGE CENTER   LGT SNOW  25  21  86 N20G25    29.71S WCI  11
PRESTON        FLURRIES  26  24  90 N17G23    29.66R WCI  13
OWATONNA         N/A     27  25  93 N23       29.76R WCI  12
FARIBAULT      LGT SNOW  27  23  86 N16G22    29.79S WCI  14
$$

...ELSEWHERE IN MINNESOTA...


CITY           SKY/WX    TMP DP  RH WIND       PRES   REMARKS
MINNEAPOLIS    FLURRIES  26  22  84 N10       29.82R WCI  16
INTNL FALLS    FAIR      13   7  77 N8        30.00F WCI   2
DULUTH         FAIR      15   9  76 N10       29.85S WCI   2
RED WING       LGT SNOW  27  21  80 N14       29.77R WCI  15
REDWOOD FALLS  CLOUDY    24  20  84 N14G22    29.89R WCI  12
MANKATO        FLURRIES  26  23  88 N21       29.83R WCI  12
WORTHINGTON    CLOUDY    25  23  92 N25G31    29.88R WCI   9
FAIRMONT       LGT SNOW  27  25  92 N24       29.83R FOG     WCI  12
$$

...SOUTHWEST WISCONSIN...


CITY           SKY/WX    TMP DP  RH WIND       PRES   REMARKS
LA CROSSE      LGT SNOW  31  27  85 N15       29.65R FOG     WCI  20
PRAIRIE DU CHI MIX PCPN  33  31  92 N6        29.59R WCI  28
BOSCOBEL       CLOUDY    34  50 100 N9        29.58R WCI  27
LONE ROCK      CLOUDY    33  30  88 N10       29.55S WCI  25
PLATTEVILLE    CLOUDY    33  33 100 N14       29.53R WCI  23
FORT MC COY    CLOUDY    30  27  90 N13G21    29.63S WCI  20
CAMP DOUGLAS   CLOUDY    30  30 100 N10       29.59S WCI  21
MAUSTON-NEW LI MIX PCPN N/A N/A N/A N10       29.58S
VIROQUA        CLOUDY    31  31 100 N13G18    29.57S WCI  21
WIS DELLS      LGT SNOW  30  29  96 N9        29.54F WCI  22
$$

...ELSEWHERE IN WISCONSIN...


CITY           SKY/WX    TMP DP  RH WIND       PRES   REMARKS
MILWAUKEE      FLURRIES  35  34  96 NW6       29.46F WCI  30
MADISON        LGT SNOW  31  29  92 N14       29.52S FOG     WCI  21
GREEN BAY      CLOUDY    30  27  88 N22G28    29.53F WCI  17
EAU CLAIRE     LGT SNOW  24  21  88 N15G26    29.71S FOG     WCI  11
BLACK RVR FLS  CLOUDY    29  28  97 N10G17    29.64S FOG     WCI  20
MEDFORD        LGT SNOW  23  20  89 N13       29.63R WCI  12
WAUSAU         CLOUDY    26  22  84 N14G22    29.58S WCI  14
WIS RAPIDS     NOT AVBL
MARSHFIELD     CLOUDY    26  22  84 N10       29.60R WCI  16
RICE LAKE        N/A     24  22  91 N15G21    29.78S WCI  12
$$

...NORTHEAST IOWA...


CITY           SKY/WX    TMP DP  RH WIND       PRES   REMARKS
WATERLOO       LGT SNOW  31  28  89 N21       29.63R FOG     WCI  18
DUBUQUE        CLOUDY    33  32  96 N12       29.53R FOG     WCI  24
DECORAH        LGT SNOW  30  30 100 N13G31    29.60R VSB 1   WCI  20
MASON CITY     LGT SNOW  26  23  88 N26G33    29.72R FOG     WCI  10
CHARLES CITY   LGT RAIN  28  28 100 N25G33    29.66R WCI  14
OELWEIN        MIX PCPN  32  32 100 N21       29.60R WCI  20
$$

...ELSEWHERE IN IOWA...


CITY           SKY/WX    TMP DP  RH WIND       PRES   REMARKS
DES MOINES     FLURRIES  30  26  85 N17G30    29.70R WCI  18
IOWA CITY      CLOUDY    37  32  82 NW8       29.58R WCI  31
FORT DODGE     FLURRIES  28  25  88 N15G25    29.76R WCI  16
MARSHALLTOWN   CLOUDY    30  28  92 N26G35    29.65R WCI  16
CEDAR RAPIDS   CLOUDY    35  34  96 N13       29.56R FOG     WCI  26
$$

...NORTHERN ILLINOIS...


CITY           SKY/WX    TMP DP  RH WIND       PRES   REMARKS
CHICAGO-OHARE  CLOUDY    39  31  72 SW13      29.50R WCI  31
CHICAGO-MIDWAY FAIR      37  32  82 SW8       29.51S WCI  31
MOLINE         CLOUDY    33  31  92 W5        29.53R WCI  29
ROCKFORD       LGT RAIN  36  33  89 W6        29.51S WCI  31
PEORIA         LGT RAIN  35  34  96 SW8       29.55S FOG     WCI  29
$$

NOTE: "FAIR" INDICATES FEW OR NO CLOUDS BELOW 12,000 FEET WITH NO
SIGNIFICANT WEATHER AND/OR OBSTRUCTIONS TO VISIBILITY. WIND
SPEEDS ARE IN MILES-PER-HOUR.




USA.gov is the U.S. government's official web portal to all federal, state and local government web resources and services.